Astrocast 0.1 (43798 NORAD) Tracking and Keplerian Element Data

This shows tracking and keplerian element data for the satellite.

Feedback or suggestion? Click here.




ElementValue
Catalog43798
NameAstrocast 0.1
Epoch Orbit566
Epoch Day10.75166809
Epoch Year2019
RAAN84.568
Inclination97.7638
Eccentricity0.0013899
Argument of Perigee121.1395
Mean Anonmoly239.1191
Mean Motion14.95668649
Decay Rate5.97E-06
L11 43798U 18099AS 19010.75166809 .00000597 00000-0 58832-4 0 9992
L22 43798 97.7638 84.5680 0013899 121.1395 239.1191 14.95668649 5667

Live tracking and technical data element details for Astrocast 0.1 (NORAD 43798). Astrocast 0.1 can be tracked NOW for your location showing map with azimuth and elevation plus other details from your city location.

Track the satellite on the map from your city or location and see movement details for azimuth, elevation, latitude, longitude, range, height, and movement on the map or in text.







IsCatalogInMostPopularTable: catalog: 43798, numindb: 35
Update: records affected: 1



GetName: 43798 Astrocast 0.1

Hit Count: updated at: Thu, 17 Jan 2019 14:41:50 GMT